1340928028311,1.98380
1340928088311,1.97949
1340928148311,1.99368
1340928208311,1.99040
1340928268311,1.97704
1340928328311,1.99107
1340928388311,1.98484
1340928448311,1.99297
1340928508311,1.98620
1340928568311,1.98794
1340928628311,1.98934
1340928688311,2.02832
1340928748311,1.96881
1340928808311,1.98040
1340928868311,1.96217
1340928928311,1.98497
1340928988311,1.96997
1340929048311,1.97733
1340929108311,1.98264
1340929168311,1.96837
1340929228311,1.97530
1340929288311,1.96322
1340929348311,1.97829
1340929408311,1.99742
1340929468311,1.97912
1340929528311,1.96177
1340929588311,1.96897
1340929648311,1.99619
1340929708311,1.99074
1340929768311,1.98813
1340929828311,1.99336
1340929888311,1.96946
1340929948311,1.97983
1340930008311,1.98554
1340930068311,1.98734
1340930128311,2.00382
1340930188311,2.01960
1340930248311,2.00204
1340930308311,1.99508
1340930368311,1.99758
1340930428311,1.97720
1340930488311,1.98837
1340930548311,1.99176
1340930608311,2.00793
1340930668311,1.99171
1340930728311,2.00496
1340930788311,2.01015
1340930848311,2.00002
1340930908311,1.96428
1340930968311,1.96638
1340931028311,1.97425
1340931088311,1.97827
1340931148311,1.97448
1340931208311,1.96295
1340931268311,1.97815
1340931328311,1.97575
1340931388311,1.97520
1340931448311,1.97928
1340931508311,1.96928
1340931568311,1.97138
1340931628321,1.94602
1340931688321,1.95907
1340931748321,1.94268
1340931808321,1.95911
1340931868321,1.94833
1340931928321,1.95448
1340931988321,1.95665
1340932048321,1.97223
1340932108321,1.96629
1340932168321,1.97828
1340932228321,1.96650
1340932288321,1.95835
1340932348321,1.96192
1340932408321,1.95402
1340932468321,1.96092
1340932528321,1.96714
1340932588321,1.95894
1340932648321,1.96692
1340932708321,1.95291
1340932768321,1.96254
1340932828321,1.94446
1340932888321,1.95813
1340932948321,1.98914
1340933008321,1.97345
1340933068321,2.00572
1340933128321,2.01621
1340933188321,2.01561
1340933248321,2.01984
1340933308321,2.04039
1340933368321,2.03233
1340933428321,2.00434
1340933488321,2.14675
1340933548321,2.01718
1340933608321,1.97851
1340933668321,1.96105
1340933728321,1.95715
1340933788321,1.94987
1340933848321,1.95766
1340933908321,1.95098
1340933968321,1.96386
1340934028321,1.93843
1340934088321,1.94768
1340934148321,1.94968
1340934208321,1.98522
1340934268321,1.96681
1340934328321,1.95531
1340934388321,1.95038
1340934448321,1.97235
1340934508321,1.97705
1340934568321,1.96082
1340934628321,1.96461
1340934688321,1.96570
1340934748321,1.97197
1340934808321,1.96516
1340934868321,1.95599
1340934928321,1.97047
1340934988321,1.97798
1340935048321,1.95542
1340935108321,1.94130
1340935168321,1.97914
1340935228331,1.95911
1340935288331,1.98509
1340935348331,1.96043
1340935408331,1.95684
1340935468331,1.94287
1340935528331,1.97566
1340935588331,1.95613
1340935648331,1.98164
1340935708331,1.97844
1340935768331,1.95533
1340935828331,1.96555
1340935888331,1.98104
1340935948331,1.94863
1340936008331,1.95755
1340936068331,1.98071
1340936128331,1.97575
1340936188331,1.96623
1340936248331,1.95723
1340936308331,1.98823
1340936368331,1.96610
1340936428331,1.98622
1340936488331,1.98018
1340936548331,1.98039
1340936608331,1.96393
1340936668331,1.99557
1340936728331,1.96354
1340936788331,1.99342
1340936848331,1.97813
1340936908331,1.96377
1340936968331,1.97508
1340937028331,1.98360
1340937088331,1.99422
1340937148331,1.97332
1340937208331,1.96746
1340937268331,2.00407
1340937328331,1.98364
1340937388331,1.96345
1340937448331,1.96782
1340937508331,1.99310
1340937568331,2.05836
1340937628331,1.98396
1340937688331,2.00536
1340937748331,1.96794
1340937808331,1.97745
1340937868331,1.98675
1340937928331,1.99257
1340937988331,1.99464
1340938048331,1.98896
1340938108331,1.97499
1340938168331,1.99167
1340938228331,1.98350
1340938288331,2.00086
1340938348331,1.98882
1340938408331,1.97293
1340938468331,1.97312
1340938528331,1.97456
1340938588331,1.99333
1340938648331,1.98971
1340938708331,2.00493
1340938768331,1.99860
1340938828341,1.98177
1340938888341,1.97341
1340938948341,1.97991
1340939008341,1.99161
1340939068341,1.99088
1340939128341,1.99325
1340939188341,1.97430
1340939248341,2.00164
1340939308341,1.99080
1340939368341,1.97106
1340939428341,1.98970
1340939488341,1.98542
1340939548341,1.97294
1340939608341,2.00341
1340939668341,1.99538
1340939728341,1.96769
1340939788341,1.97206
1340939848341,1.97175
1340939908341,1.99514
1340939968341,1.99383
1340940028341,1.96887
1340940088341,1.93817
1340940148341,1.95951
1340940208341,1.97223
1340940268341,1.97199
1340940328341,1.96591
1340940388341,1.97240
1340940448341,1.95865
1340940508341,1.96873
1340940568341,1.96623
1340940628341,1.96483
1340940688341,1.98270
1340940748341,1.98208
1340940808341,1.97579
1340940868341,1.97359
1340940928341,1.97513
1340940988341,2.00150
1340941048341,1.97239
1340941108341,1.98197
1340941168341,1.98179
1340941228341,2.01079
1340941288341,1.97904
1340941348341,1.97807
1340941408341,1.98800
1340941468341,1.96559
1340941528341,1.98536
1340941588341,1.98126
1340941648341,2.05203
1340941708341,1.97799
1340941768341,1.97757
1340941828341,1.95110
1340941888341,1.95579
1340941948341,1.98587
1340942008341,1.98815
1340942068341,1.97541
1340942128341,1.96335
1340942188341,1.96570
1340942248341,1.99259
1340942308341,1.98642
1340942368341,1.96528
1340942428350,1.98242
1340942488350,1.97455
1340942548350,1.98180
1340942608350,1.98917
1340942668350,1.98432
1340942728350,1.96797
1340942788350,1.99319
1340942848350,1.99528
1340942908350,1.98055
1340942968350,1.98496
1340943028350,1.97432
1340943088350,1.98544
1340943148350,1.99039
1340943208350,2.01854
1340943268350,2.02233
1340943328350,2.00036
1340943388350,2.00578
1340943448350,2.00209
1340943508350,1.98935
1340943568350,1.96610
1340943628350,1.98330
1340943688350,1.99410
1340943748350,1.98304
1340943808350,1.96089
1340943868350,1.98653
1340943928350,2.00795
1340943988350,2.00490
1340944048350,1.97538
1340944108350,1.97509
1340944168350,1.99182
1340944228350,1.97318
1340944288350,1.96782
1340944348350,1.97629
1340944408350,1.97449
1340944468350,2.00382
1340944528350,1.98180
1340944588350,1.99935
1340944648350,1.98262
1340944708350,1.98458
1340944768350,1.98926
1340944828350,1.96253
1340944888350,1.98363
1340944948350,1.97462
1340945008350,1.97597
1340945068350,1.99467
1340945128350,1.97193
1340945188350,1.97529
1340945248350,2.00659
1340945308350,1.97025
1340945368350,2.01885
1340945428350,1.98939
1340945488350,2.06516
1340945548350,1.98228
1340945608350,1.99616
1340945668350,1.97269
1340945728350,1.99724
1340945788350,1.98377
1340945848350,1.97949
1340945908350,2.00012
1340945968350,1.97233
1340946028359,1.98978
1340946088359,2.00764
1340946148359,1.99679
1340946208359,1.97485
1340946268359,1.98939
1340946328359,1.97554
1340946388359,1.97820
1340946448359,2.00317
1340946508359,1.98198
1340946568359,1.97963
1340946628359,1.97746
1340946688359,1.97354
1340946748359,1.97414
1340946808359,1.99946
1340946868359,1.99957
1340946928359,1.99081
1340946988359,1.99231
1340947048359,2.00494
1340947108359,2.01263
1340947168359,1.97629
1340947228359,1.99504
1340947288359,1.99506
1340947348359,1.98929
1340947408359,1.99329
1340947468359,2.01950
1340947528359,1.98807
1340947588359,2.00317
1340947648359,1.98014
1340947708359,2.01399
1340947768359,1.99265
1340947828359,2.01645
1340947888359,1.99051
1340947948359,1.99930
1340948008359,1.98441
1340948068359,1.99206
1340948128359,2.01000
1340948188359,2.00526
1340948248359,1.99918
1340948308359,2.01359
1340948368359,2.00397
1340948428359,2.00054
1340948488359,2.15578
1340948548359,2.00984
1340948608359,1.99831
1340948668359,1.99914
1340948728359,2.00437
1340948788359,2.00895
1340948848359,1.99858
1340948908359,1.99412
1340948968359,1.99762
1340949028359,1.97472
1340949088359,1.98099
1340949148359,2.00803
1340949208359,2.02400
1340949268359,1.98966
1340949328359,1.99535
1340949388359,2.01890
1340949448359,2.00688
1340949508359,2.00151
1340949568359,2.03132
1340949628368,2.00916
1340949688368,2.01661
1340949748368,2.00530
1340949808368,1.99946
1340949868368,1.99100
1340949928368,2.02894
1340949988368,2.02632
1340950048368,2.00891
1340950108368,1.99072
1340950168368,1.99654
1340950228368,2.00158
1340950288368,2.00164
1340950348368,1.98262
1340950408368,1.98571
1340950468368,1.99516
1340950528368,1.99903
1340950588368,2.00640
1340950648368,1.97296
1340950708368,1.98925
1340950768368,2.00524
1340950828368,1.97698
1340950888368,1.99462
1340950948368,1.99695
1340951008368,1.99737
1340951068368,1.99475
1340951128368,2.00124
1340951188368,1.98589
1340951248368,1.99721
1340951308368,1.98110
1340951368368,1.99558
1340951428368,2.00175
1340951488368,2.00339
1340951548368,2.00582
1340951608368,1.98524
1340951668368,1.98659
1340951728368,2.00340
1340951788368,2.00208
1340951848368,2.01716
1340951908368,2.07618
1340951968368,1.96941
1340952028368,1.98395
1340952088368,1.98516
1340952148368,1.98957
1340952208368,1.99715
1340952268368,1.99615
1340952328368,1.99267
1340952388368,2.02402
1340952448368,2.05699
1340952508368,2.05545
1340952568368,2.05663
1340952628368,2.04002
1340952688368,2.03021
1340952748368,2.01334
1340952808368,2.00791
1340952868368,1.99533
1340952928368,1.98575
1340952988368,2.00782
1340953048368,1.98465
1340953108368,2.03185
1340953168368,2.00764
1340953228378,2.00955
1340953288378,2.01279
1340953348378,2.01978
1340953408378,2.00258
1340953468378,1.98857
1340953528378,1.99500
1340953588378,1.99842
1340953648378,2.00203
1340953708378,2.00556
1340953768378,2.01099
1340953828378,2.03388
1340953888378,1.99794
1340953948378,2.00539
1340954008378,2.13276
1340954068378,2.00735
1340954128378,2.02265
1340954188378,2.01576
1340954248378,2.02393
1340954308378,2.00030
1340954368378,2.01142
1340954428378,2.01340
1340954488378,2.00637
1340954548378,2.03231
1340954608378,2.00401
1340954668378,2.01222
1340954728378,2.03205
1340954788378,2.03908
1340954848378,2.01181
1340954908378,2.02446
1340954968378,2.02622
1340955028378,2.03151
1340955088378,2.01727
1340955148378,2.04729
1340955208378,2.03536
1340955268378,2.04116
1340955328378,2.05338
1340955388378,2.05091
1340955448378,2.05032
1340955508378,2.05658
1340955568378,2.04396
1340955628378,2.04215
1340955688378,2.04862
1340955748378,2.06658
1340955808378,2.05157
1340955868378,2.08103
1340955928378,2.05750
1340955988378,2.00247
1340956048378,2.05488
1340956108378,2.05727
1340956168378,2.07534
1340956228378,2.05257
1340956288378,2.06369
1340956348378,2.06424
1340956408378,2.06923
1340956468378,2.06504
1340956528378,2.07661
1340956588378,2.09582
1340956648378,2.09612
1340956708378,2.10407
1340956768378,2.11337
1340956828387,2.08517
1340956888387,2.09973
1340956948387,2.07281
1340957008387,2.11880
1340957068387,2.10965
1340957128387,2.08175
1340957188387,2.09659
1340957248387,2.09135
1340957308387,2.09679
1340957368387,2.09113
1340957428387,2.07924
1340957488387,2.06181
1340957548387,2.07664
1340957608387,2.08696
1340957668387,2.05253
1340957728387,2.11482
1340957788387,2.08205
1340957848387,2.08751
1340957908387,2.08515
1340957968387,2.10638
1340958028387,2.09016
1340958088387,2.10903
1340958148387,2.09692
1340958208387,2.11806
1340958268387,2.08259
1340958328387,2.08125
1340958388387,2.08201
1340958448387,2.08536
1340958508387,2.08887
1340958568387,2.07474
1340958628387,2.07688
1340958688387,2.08765
1340958748387,2.09216
1340958808387,2.09126
1340958868387,2.09688
1340958928387,2.07160
1340958988387,2.07937
1340959048387,2.09094
1340959108387,2.08243
1340959168387,2.07924
1340959228387,2.09014
1340959288387,2.10187
1340959348387,2.09766
1340959408387,2.07448
1340959468387,2.08133
1340959528387,2.08948
1340959588387,2.06433
1340959648387,2.09518
1340959708387,2.07856
1340959768387,2.08512
1340959828387,2.07264
1340959888387,2.07735
1340959948387,2.06732
1340960008387,2.05000
1340960068387,2.08812
1340960128387,2.07132
1340960188387,2.06289
1340960248387,2.06373
1340960308387,2.05507
1340960368387,2.07874
1340960428396,2.07181
1340960488396,2.06155
1340960548396,2.06898
1340960608396,2.07543
1340960668396,2.06699
1340960728396,2.08449
1340960788396,2.08185
1340960848396,2.06194
1340960908396,2.07393
1340960968396,2.05670
1340961028396,2.04922
1340961088396,2.01904
1340961628396,2.32113
1340961688396,2.28036
1340961748396,2.28859
1340961808396,2.22419
1340961868396,2.18067
1340961928396,2.14547
1340961988396,2.10175
1340962048396,2.07065
1340962108396,2.04972
1340962168396,2.07179
1340962228396,2.04931
1340962288396,2.03228
1340962348396,2.04690
1340962408396,2.06306
1340962468396,2.04652
1340962528396,2.04327
1340962588396,2.04473
1340962648396,2.02913
1340962708396,2.05843
1340962768396,2.04362
1340962828396,2.06452
1340962888396,2.05851
1340962948396,2.04616
1340963008396,2.02598
1340963068396,2.06588
1340963128396,2.04304
1340963188396,2.04359
1340963248396,2.04059
1340963308396,2.06437
1340963368396,2.04645
1340963428396,2.04853
1340963488396,2.06258
1340963548396,2.05100
1340963608396,2.02132
1340963668396,2.03857
1340963728396,2.02982
1340963788396,2.02964
1340963848396,2.03610
1340963908396,2.04076
1340963968396,2.02844
1340964028405,2.04406
1340964088405,2.03234
1340964148405,2.03074
1340964208405,2.04408
1340964268405,2.03311
1340964328405,2.02890
1340964388405,2.02980
1340964448405,2.02829
1340964508405,2.04029
1340964568405,2.02914
1340964628405,2.02808
1340964688405,2.05717
1340964748405,2.02988
1340964808405,2.02514
1340964868405,2.03983
1340964928405,2.03445
1340964988405,2.02664
1340965048405,1.99941
1340965108405,2.01203
1340965168405,2.01639
1340965228405,2.04325
1340965288405,2.02499
1340965348405,2.03260
1340965408405,2.06589
1340965468405,2.02865
1340965528405,2.05956
1340965588405,2.01504
1340965648405,2.01264
1340965708405,2.00520
1340965768405,2.00551
1340965828405,2.04729
1340965888405,2.03906
1340965948405,2.02706
1340966008405,2.03915
1340966068405,2.02325
1340966128405,2.03674
1340966188405,2.03740
1340966248405,2.00872
1340966308405,2.02725
1340966368405,2.02749
1340966428405,2.03093
1340966488405,2.04176
1340966548405,2.04552
1340966608405,2.02641
1340966668405,2.02072
1340966728405,2.03852
1340966788405,2.03356
1340966848405,2.03196
1340966908405,2.05300
1340966968405,2.05417
1340967028405,2.02048
1340967088405,2.02488
1340967148405,2.02665
1340967208405,2.03443
1340967268405,2.04120
1340967328405,2.03551
1340967388405,2.02471
1340967448405,2.02929
1340967508405,2.03212
1340967568405,2.01575
1340967628414,2.04330
1340967688414,2.02636
1340967748414,2.01621
1340967808414,2.02942
1340967868414,2.03010
1340967928414,2.03303
1340967988414,2.03217
1340968048414,2.05090
1340968108414,2.04895
1340968168414,2.02722
1340968228414,2.02839
1340968288414,2.01597
1340968348414,2.02190
1340968408414,2.04234
1340968468414,2.02443
1340968528414,2.05017
1340968588414,2.05275
1340968648414,2.02977
1340968708414,2.05500
1340968768414,2.03604
1340968828414,2.03293
1340968888414,2.03799
1340968948414,2.00962
1340969008414,2.03620
1340969068414,2.04017
1340969128414,2.03068
1340969188414,2.02407
1340969248414,2.02134
1340969308414,2.03158
1340969368414,2.06753
1340969428414,2.02577
1340969488414,2.04095
1340969548414,2.01789
1340969608414,2.03927
1340969668414,2.02878
1340969728414,2.04642
1340969788414,2.02419
1340969848414,2.04500
1340969908414,2.02917
1340969968414,2.05375
1340970028414,2.03686
1340970088414,2.06820
1340970148414,2.13399
1340970208414,2.04812
1340970268414,2.02938
1340970328414,2.04401
1340970388414,2.01813
1340970448414,2.04939
1340970508414,2.05473
1340970568414,2.05760
1340970628414,2.03253
1340970688414,2.04465
1340970748414,2.06886
1340970808414,2.03485
1340970868414,2.04143
1340970928414,2.05591
1340970988414,2.04171
1340971048414,2.04450
1340971108414,2.06881
1340971168414,2.04011
1340971228437,2.05308
1340971288437,2.03789
1340971348437,2.05270
1340971408437,2.05153
1340971468437,2.04132
1340971528437,2.05512
1340971588437,2.04401
1340971648437,2.01269
1340971708437,2.07970
1340971768437,2.05499
1340971828437,2.05623
1340971888437,2.04109
1340971948437,2.05404
1340972008437,2.08733
1340972068437,2.05877
1340972128437,2.05851
1340972188437,2.07736
1340972248437,2.06266
1340972308437,2.07672
1340972368437,2.06876
1340972428437,2.07514
1340972488437,2.05294
1340972548437,2.07239
1340972608437,2.04762
1340972668437,2.07381
1340972728437,2.03768
1340972788437,2.05160
1340972848437,2.07165
1340972908437,2.07163
1340972968437,2.06573
1340973028437,2.06949
1340973088437,2.06743
1340973148437,2.06068
1340973208437,2.27114
1340973268437,2.04595
1340973328437,2.07014
1340973388437,2.05396
1340973448437,2.08358
1340973508437,2.05435
1340973568437,2.06715
1340973628437,2.07786
1340973688437,2.07198
1340973748437,2.04617
1340973808437,2.04643
1340973868437,2.05122
1340973928437,2.06489
1340973988437,2.05668
1340974048437,2.06436
1340974108437,2.02697
1340974168437,2.04368
1340974228437,2.06486
1340974288437,2.04570
1340974348437,2.07816
1340974408437,2.03964
1340974468437,2.05368
1340974528437,2.05442
1340974588437,2.07448
1340974648437,2.04412
1340974708437,2.07302
1340974768437,2.05821
1340974828446,2.05202
1340974888446,2.03748
1340974948446,2.04993
1340975008446,2.06792
1340975068446,2.06119
1340975128446,2.06390
1340975188446,2.05863
1340975248446,2.04294
1340975308446,2.04240
1340975368446,2.06475
1340975428446,2.07454
1340975488446,2.05412
1340975548446,2.03043
1340975608446,2.07797
1340975668446,2.05770
1340975728446,2.05632
1340975788446,2.06178
1340975848446,2.06004
1340975908446,2.05391
1340975968446,2.04912
1340976028446,2.07414
1340976088446,2.04605
1340976148446,2.06202
1340976208446,2.04561
1340976268446,2.02529
1340976328446,2.04962
1340976388446,2.06510
1340976448446,2.06412
1340976508446,2.06385
1340976568446,2.06514
1340976628446,2.06473
1340976688446,2.10357
1340976748446,2.08587
1340976808446,2.06638
1340976868446,2.06798
1340976928446,2.08485
1340976988446,2.03690
1340977048446,2.07116
1340977108446,2.06118
1340977168446,2.05802
1340977228446,2.07038
1340977288446,2.06766
1340977348446,2.07729
1340977408446,2.07397
1340977468446,2.06850
1340977528446,2.09816
1340977588446,2.04137
1340977648446,2.07182
1340977708446,2.06654
1340977768446,2.06313
1340977828446,2.03686
1340977888446,2.04727
1340977948446,2.04873
1340978008446,2.17474
1340978068446,2.06233
1340978128446,2.04797
1340978188446,2.05976
1340978248446,2.04971
1340978308446,2.04499
1340978368446,2.04404
1340978428456,2.05720
1340978488456,2.03425
1340978548456,2.04662
1340978608456,2.05049
1340978668456,2.05287
1340978728456,2.03852
1340978788456,2.04461
1340978848456,2.04915
1340978908456,2.04347
1340978968456,2.03858
1340979028456,2.06595
1340979088456,2.03826
1340979148456,2.03413
1340979208456,2.04610
1340979268456,2.04797
1340979328456,2.04610
1340979388456,2.04467
1340979448456,2.02819
1340979508456,2.04832
1340979568456,2.03682
1340979628456,2.03431
1340979688456,2.01778
1340979748456,2.02396
1340979808456,2.03996
1340979868456,2.04406
1340979928456,2.02786
1340979988456,2.03895
1340980048456,2.04383
1340980108456,2.03907
1340980168456,2.03959
1340980228456,2.02895
1340980288456,2.02767
1340980348456,2.03723
1340980408456,2.03760
1340980468456,2.02344
1340980528456,2.04189
1340980588456,2.02248
1340980648456,2.04957
1340980708456,2.04670
1340980768456,2.02962
1340980828456,2.03300
1340980888456,2.03079
1340980948456,2.02304
1340981008456,2.07082
1340981068456,2.04440
1340981128456,2.05700
1340981188456,2.03439
1340981248456,2.04306
1340981308456,2.03145
1340981368456,2.06216
1340981428456,2.05059
1340981488456,2.00555
1340981548456,2.02862
1340981608456,2.03911
1340981668456,2.01977
1340981728456,2.01196
1340981788456,2.04332
1340981848456,2.04470
1340981908456,2.05280
1340981968456,2.04590
1340982028465,2.02671
1340982088465,2.02565
1340982148465,2.03022
1340982208465,2.04195
1340982268465,2.01688
1340982328465,2.04811
1340982388465,2.03367
1340982448465,2.01276
1340982508465,2.02869
1340982568465,2.03849
1340982628465,2.03851
1340982688465,2.02722
1340982748465,2.03676
1340982808465,1.99872
1340982868465,2.02510
1340982928465,2.03671
1340982988465,2.02177
1340983048465,2.03606
1340983108465,2.02686
1340983168465,2.05260
1340983228465,2.04883
1340983288465,2.05563
1340983348465,2.04160
1340983408465,2.03366
1340983468465,2.03341
1340983528465,2.05693
1340983588465,2.01144
1340983648465,2.01504
1340983708465,2.02356
1340983768465,2.03318
1340983828465,2.01860
1340983888465,2.01487
1340983948465,2.01892
1340984008465,2.03911
1340984068465,2.02998
1340984128465,2.03340
1340984188465,2.03206
1340984248465,2.05084
1340984308465,2.05837
1340984368465,2.03682
1340984428465,2.02400
1340984488465,2.04651
1340984548465,2.04565
1340984608465,2.04809
1340984668465,2.07231
1340984728465,2.03845
1340984788465,2.04342
1340984848465,2.05396
1340984908465,2.02219
1340984968465,2.06560
1340985028465,2.05066
1340985088465,2.05674
1340985148465,2.03531
1340985208465,2.02525
1340985268465,2.04579
1340985328465,2.02757
1340985388465,2.05320
1340985448465,2.03960
1340985508465,2.03869
1340985568465,2.04430
1340985628475,2.04800
1340985688475,2.03064
1340985748475,2.03321
1340985808475,2.04348
1340985868475,2.02919
1340985928475,2.03391
1340985988475,2.03567
1340986048475,2.06948
1340986108475,2.00156
1340986168475,2.04358
1340986228475,2.03093
1340986288475,2.03737
1340986348475,2.02797
1340986408475,2.02123
1340986468475,2.04855
1340986528475,2.04866
1340986588475,2.04858
1340986648475,2.04302
1340986708475,2.05051
1340986768475,2.02998
1340986828475,2.05038
1340986888475,2.08390
1340986948475,2.03695
1340987008475,2.05655
1340987068475,2.02929
1340987128475,2.03176
1340987188475,2.05736
1340987248475,2.04634
1340987308475,2.05379
1340987368475,2.03894
1340987428475,2.04566
1340987488475,2.06336
1340987548475,2.04518
1340987608475,2.07023
1340987668475,2.06158
1340987728475,2.03187
1340987788475,2.07572
1340987848475,2.06444
1340987908475,2.07152
1340987968475,2.05461
1340988028475,2.06400
1340988088475,2.08232
1340988148475,2.07308
1340988208475,2.07349
1340988268475,2.05372
1340988328475,2.05201
1340988388475,2.07778
1340988448475,2.07886
1340988508475,2.07179
1340988568475,2.07147
1340988628475,2.10677
1340988688475,2.04626
1340988748475,2.05002
1340988808475,2.07366
1340988868475,2.07453
1340988928475,2.08903
1340988988475,2.07377
1340989048475,2.07726
1340989108475,2.07203
1340989168475,2.07854
1340989228485,2.06513
1340989288485,2.05455
1340989348485,2.06041
1340989408485,2.09509
1340989468485,2.07856
1340989528485,2.08454
1340989588485,2.06919
1340989648485,2.07459
1340989708485,2.09126
1340989768485,2.09160
1340989828485,2.06513
1340989888485,2.06900
1340989948485,2.07766
1340990008485,2.05806
1340990068485,2.06416
1340990128485,2.06502
1340990188485,2.06389
1340990248485,2.06479
1340990308485,2.07449
1340990368485,2.07968
1340990428485,2.07205
1340990488485,2.09963
1340990548485,2.10328
1340990608485,2.08476
1340990668485,2.10449
1340990728485,2.11041
1340990788485,2.09033
1340990848485,2.08624
1340990908485,2.08543
1340990968485,2.09983
1340991028485,2.09884
1340991088485,2.06255
1340991148485,2.06060
1340991208485,2.07570
1340991268485,2.09716
1340991328485,2.09378
1340991388485,2.07546
1340991448485,2.10075
1340991508485,2.11782
1340991568485,2.07524
1340991628485,2.06479
1340991688485,2.08441
1340991748485,2.06543
1340991808485,2.08919
1340991868485,2.08627
1340991928485,2.07365
1340991988485,2.08465
1340992048485,2.08707
1340992108485,2.07950
1340992168485,2.07732
1340992228485,2.06204
1340992288485,2.07595
1340992348485,2.08370
1340992408485,2.08821
1340992468485,2.06456
1340992528485,2.06313
1340992588485,2.08269
1340992648485,2.08536
1340992708485,2.09477
1340992768485,2.08061
1340992828495,2.08013
1340992888495,2.08118
1340992948495,2.10364
1340993008495,2.07891
1340993068495,2.09459
1340993128495,2.07951
1340993188495,2.09269
1340993248495,2.08510
1340993308495,2.06710
1340993368495,2.07993
1340993428495,2.05262
1340993488495,2.09789
1340993548495,2.07407
1340993608495,2.07208
1340993668495,2.07178
1340993728495,2.07223
1340993788495,2.07105
1340993848495,2.10603